Location: Ladd Observatory
(41.8387°N, 71.3996°W)
Time: 05:48:21
(UTC-04:00)

ISS - Visible Passes

Search period start: 19 September 2014 00:00
Search period end: 29 September 2014 00:00
Orbit: 414 x 417 km, 51.6° (Epoch: 19 September)

Date Brightness Start Highest point End Pass type
(mag) Time Alt. Az. Time Alt. Az. Time Alt. Az.
19 Sep -1.0 04:09:17 23° NNE 04:09:17 23° NNE 04:10:52 10° NE visible
19 Sep -1.0 05:42:53 10° NW 05:45:05 16° N 05:47:17 10° NNE visible
20 Sep -1.2 04:55:19 17° NNW 04:56:02 19° NNW 04:58:28 10° NE visible
21 Sep -0.6 04:08:25 17° NNE 04:08:25 17° NNE 04:09:42 10° NE visible
21 Sep -0.8 05:42:32 10° NW 05:44:35 15° N 05:46:38 10° NE visible
22 Sep -0.9 04:54:22 14° NNW 04:55:26 15° N 04:57:30 10° NE visible
23 Sep -0.4 04:07:25 14° NNE 04:07:25 14° NNE 04:08:30 10° NNE visible
23 Sep -0.9 05:41:33 10° NNW 05:43:55 18° NNE 05:46:16 10° ENE visible
24 Sep -0.8 04:53:20 13° NNW 04:54:42 16° N 04:56:51 10° NE visible
25 Sep -0.3 04:06:24 14° NNE 04:06:24 14° NNE 04:07:30 10° NE visible
25 Sep -1.3 05:40:09 10° NW 05:43:00 26° NNE 05:45:51 10° E visible
26 Sep -1.0 04:52:21 16° NNW 04:53:47 20° NNE 04:56:21 10° ENE visible
27 Sep -0.3 04:05:29 15° NNE 04:05:29 15° NNE 04:06:47 10° NE visible
27 Sep -2.4 05:38:32 10° NW 05:41:47 48° NNE 05:45:01 10° ESE visible
28 Sep -1.7 04:51:34 26° N 04:52:35 32° NNE 04:55:38 10° E visible
